| time (UTC) | temp C | wind direction | speed KPH | gust KPH | rain 1hr cm | rain 24hr cm | rain mn cm | humidity % | barometer mb |
| 20260502210015 | 10 | 165 | 1.6 | 4.8 | 0.00 | 0.05 | 0.05 | 84 | 1009.4 |
| 20260502204510 | 10 | 164 | 1.6 | 4.8 | 0.00 | 0.05 | 0.05 | 83 | 1009.3 |
| 20260502203011 | 10 | 165 | 0.0 | 4.8 | 0.00 | 0.05 | 0.05 | 83 | 1009.1 |
| 20260502201509 | 10 | 165 | 0.0 | 8.0 | 0.00 | 0.05 | 0.05 | 84 | 1009.1 |
| 20260502200010 | 10 | 165 | 4.8 | 9.7 | 0.00 | 0.05 | 0.05 | 85 | 1009.2 |
| 20260502194509 | 10 | 164 | 6.4 | 14.5 | 0.00 | 0.05 | 0.05 | 87 | 1009.2 |
| 20260502193009 | 10 | 163 | 6.4 | 9.7 | 0.00 | 0.05 | 0.05 | 88 | 1009.2 |
| 20260502191509 | 10 | 163 | 6.4 | 11.3 | 0.00 | 0.05 | 0.05 | 87 | 1008.8 |
| 20260502190010 | 10 | 165 | 4.8 | 12.9 | 0.00 | 0.05 | 0.05 | 90 | 1008.9 |
| 20260502184509 | 11 | 166 | 6.4 | 11.3 | 0.00 | 0.05 | 0.05 | 86 | 1008.9 |
| 20260502183018 | 11 | 161 | 6.4 | 11.3 | 0.00 | 0.05 | 0.05 | 84 | 1008.9 |
| 20260502181516 | 11 | 163 | 4.8 | 11.3 | 0.00 | 0.05 | 0.05 | 85 | 1009.1 |
| 20260502163017 | 14 | 166 | 4.8 | 11.3 | 0.03 | 0.03 | 0.03 | 57 | 1009.3 |
| 20260502161509 | 16 | 182 | 8.0 | 20.9 | 0.00 | 0.00 | 0.00 | 38 | 1009.8 |
| 20260502151511 | 18 | 242 | 6.4 | 19.3 | 0.00 | 0.00 | 0.00 | 27 | 1009.9 |
| 20260502123015 | 18 | 155 | 17.7 | 27.4 | 0.00 | 0.00 | 0.00 | 33 | 1010.5 |
| 20260502121513 | 18 | 166 | 14.5 | 27.4 | 0.00 | 0.00 | 0.00 | 33 | 1010.5 |
| 20260502114509 | 17 | 164 | 11.3 | 20.9 | 0.00 | 0.00 | 0.00 | 37 | 1010.7 |
| 20260502113009 | 18 | 165 | 11.3 | 22.5 | 0.00 | 0.00 | 0.00 | 40 | 1010.8 |
| 20260502111509 | 18 | 153 | 9.7 | 19.3 | 0.00 | 0.00 | 0.00 | 36 | 1010.8 |
| 20260502110010 | 17 | 130 | 11.3 | 17.7 | 0.00 | 0.00 | 0.00 | 34 | 1011.0 |
| 20260502104509 | 17 | 177 | 11.3 | 17.7 | 0.00 | 0.00 | 0.00 | 42 | 1011.1 |
| 20260502103011 | 18 | 139 | 3.2 | 14.5 | 0.00 | 0.00 | 0.00 | 31 | 1011.3 |
| 20260502101529 | 17 | 164 | 6.4 | 17.7 | 0.00 | 0.00 | 0.00 | 29 | 1011.7 |
| 20260502091511 | 16 | 184 | 8.0 | 17.7 | 0.00 | 0.00 | 0.00 | 35 | 1012.3 |
| 20260502071509 | 10 | 355 | 0.0 | 3.2 | 0.00 | 0.00 | 0.00 | 57 | 1013.2 |
| 20260502070012 | 10 | 355 | 0.0 | 1.6 | 0.00 | 0.00 | 0.00 | 60 | 1013.3 |
| 20260502064511 | 9 | 355 | 0.0 | 1.6 | 0.00 | 0.00 | 0.00 | 62 | 1013.5 |
| 20260502063010 | 8 | 355 | 0.0 | 1.6 | 0.00 | 0.00 | 0.00 | 64 | 1013.7 |
| 20260502061510 | 8 | 355 | 0.0 | 1.6 | 0.00 | 0.00 | 0.00 | 63 | 1013.9 |
| 20260502060013 | 8 | 355 | 0.0 | 1.6 | 0.00 | 0.00 | 0.00 | 65 | 1014.0 |
| 20260502054509 | 7 | 355 | 0.0 | 0.0 | 0.00 | 0.00 | 0.00 | 68 | 1014.2 |
| 20260502053010 | 6 | 355 | 0.0 | 1.6 | 0.00 | 0.00 | 0.00 | 72 | 1014.3 |
| 20260502051510 | 5 | 355 | 0.0 | 1.6 | 0.00 | 0.00 | 0.00 | 81 | 1014.3 |
| 20260502050010 | 3 | 355 | 0.0 | 3.2 | 0.00 | 0.00 | 0.00 | 84 | 1014.5 |
| 20260502044512 | 2 | 355 | 1.6 | 8.0 | 0.00 | 0.00 | 0.00 | 85 | 1014.6 |
| 20260502043010 | 2 | 14 | 3.2 | 8.0 | 0.00 | 0.00 | 0.00 | 85 | 1014.8 |
| 20260502041510 | 2 | 13 | 0.0 | 6.4 | 0.00 | 0.00 | 0.00 | 85 | 1015.0 |
| 20260502040010 | 2 | 15 | 1.6 | 6.4 | 0.00 | 0.00 | 0.00 | 85 | 1015.2 |
| 20260502034520 | 2 | 14 | 0.0 | 6.4 | 0.00 | 0.00 | 0.00 | 84 | 1015.3 |
| 20260502033010 | 2 | 14 | 1.6 | 8.0 | 0.00 | 0.00 | 0.00 | 84 | 1015.6 |
| 20260502031510 | 2 | 28 | 1.6 | 8.0 | 0.00 | 0.00 | 0.00 | 83 | 1015.9 |
| 20260502030010 | 2 | 13 | 3.2 | 8.0 | 0.00 | 0.00 | 0.00 | 82 | 1016.1 |
| 20260502024510 | 3 | 10 | 0.0 | 0.0 | 0.00 | 0.00 | 0.00 | 82 | 1016.3 |
| 20260502023010 | 3 | 9 | 0.0 | 3.2 | 0.00 | 0.00 | 0.00 | 82 | 1016.6 |
| 20260502021509 | 3 | 9 | 0.0 | 0.0 | 0.00 | 0.00 | 0.00 | 81 | 1016.9 |
| 20260502020009 | 3 | 9 | 0.0 | 0.0 | 0.00 | 0.00 | 0.00 | 80 | 1017.1 |
| 20260502014509 | 3 | 9 | 0.0 | 0.0 | 0.00 | 0.00 | 0.00 | 80 | 1017.1 |
| 20260502013010 | 3 | 9 | 0.0 | 1.6 | 0.00 | 0.00 | 0.00 | 80 | 1017.2 |
| 20260502011520 | 3 | 13 | 0.0 | 9.7 | 0.00 | 0.00 | 0.00 | 80 | 1017.3 |
| 20260502010013 | 3 | 17 | 0.0 | 6.4 | 0.00 | 0.00 | 0.00 | 79 | 1017.7 |
| 20260502004510 | 4 | 176 | 0.0 | 4.8 | 0.00 | 0.00 | 0.00 | 78 | 1017.9 |
| 20260502003009 | 4 | 178 | 0.0 | 3.2 | 0.00 | 0.00 | 0.00 | 77 | 1018.2 |
| 20260502001512 | 5 | 178 | 0.0 | 3.2 | 0.00 | 0.00 | 0.00 | 76 | 1018.3 |
| 20260502000010 | 5 | 178 | 0.0 | 1.6 | 0.00 | 0.00 | 0.00 | 74 | 1018.6 |
| 20260501234509 | 5 | 178 | 0.0 | 1.6 | 0.00 | 0.00 | 0.00 | 73 | 1018.7 |
| 20260501233018 | 5 | 178 | 0.0 | 3.2 | 0.00 | 0.00 | 0.00 | 72 | 1018.8 |
| 20260501231509 | 6 | 178 | 0.0 | 1.6 | 0.00 | 0.00 | 0.00 | 71 | 1019.0 |
| 20260501230013 | 6 | 178 | 0.0 | 1.6 | 0.00 | 0.00 | 0.00 | 70 | 1019.2 |
| 20260501224509 | 6 | 178 | 0.0 | 3.2 | 0.00 | 0.00 | 0.00 | 69 | 1019.3 |
| 20260501223010 | 7 | 178 | 0.0 | 3.2 | 0.00 | 0.00 | 0.00 | 68 | 1019.3 |
| 20260501221512 | 7 | 178 | 0.0 | 1.6 | 0.00 | 0.00 | 0.00 | 67 | 1019.4 |
| 20260501220014 | 8 | 178 | 0.0 | 0.0 | 0.00 | 0.00 | 0.00 | 65 | 1019.6 |
| 20260501214510 | 8 | 178 | 0.0 | 0.0 | 0.00 | 0.00 | 0.00 | 64 | 1019.7 |
| 20260501213010 | 8 | 178 | 0.0 | 0.0 | 0.00 | 0.00 | 0.00 | 62 | 1019.8 |
| 20260501211510 | 9 | 178 | 0.0 | 3.2 | 0.00 | 0.00 | 0.00 | 60 | 1019.9 |